Rotterdam, Netherlands

1:36 AM CEST on March 27, 2017 (GMT +0200)
Rotterdam

Weather History for EHRD - July, 2012

Change the Weather History Date:

Saturday, July 28, 2012

  Actual Average Record
Temperature  
Mean Temperature 66 °F -  
Max Temperature 72 °F 70 °F 86 °F (2002)
Min Temperature 59 °F 55 °F 44 °F (1996)
Growing Degree Days 16 (Base 50)    
Moisture  
Dew Point 59 °F    
Average Humidity 83    
Maximum Humidity 100    
Minimum Humidity 60    
Precipitation  
Precipitation 0.00 in - - ()
Sea Level Pressure  
Sea Level Pressure 29.78 in    
Wind  
Wind Speed 5 mph ()    
Max Wind Speed 10 mph    
Max Gust Speed -    
Visibility 6.4 miles    
Events Rain    
Averages and records for this station are not official NWS values.
T = Trace of Precipitation, MM = Missing Value Source: Averaged Metar Reports

Daily Weather History Graph

Daily Weather History Graph

Search for Another Location

Airport or City:

Trip Planner

Search our weather history database for the weather conditions in past years. The results will help you decide how hot, cold, wet, or windy it might be!

Date:

Astronomy

Jul. 28, 2012 Rise Set
Actual Time 5:58 AM CEST 9:37 PM CEST
Civil Twilight 5:16 AM CEST 10:19 PM CEST
Nautical Twilight 4:18 AM CEST 11:17 PM CEST
Astronomical Twilight 2:46 AM CEST 12:45 AM CEST
Moon 5:31 PM CEST (7/28) 1:02 AM CEST (7/28)
Length of Visible Light 17h 03m
Length of Day
15h 39m
Waxing Gibbous, 73% of the Moon is Illuminated
Jul 28
Waxing Gibbous
Aug 2
Full
Aug 9
Last Quarter
Aug 17
New
Aug 24
First Quarter

Hourly Weather History & Observations

Time (CEST) Temp. Dew Point Humidity Pressure Visibility Wind Dir Wind Speed Gust Speed Precip Events Conditions
12:25 AM 64.4 °F 64.4 °F 100% 29.77 in - NNW 5.8 mph - N/A   Light Drizzle
12:55 AM 64.4 °F 62.6 °F 94% 29.77 in 2.8 mi NNW 5.8 mph - N/A   Overcast
1:25 AM 64.4 °F 62.6 °F 94% 29.77 in 3.1 mi North 4.6 mph - N/A   Overcast
1:55 AM 62.6 °F 62.6 °F 100% 29.77 in - North 3.5 mph - N/A   Overcast
2:00 AM 63 °F 63 °F 98% 29.79 in 3 mi North 4.5 mph - -   Mist
2:25 AM 62.6 °F 62.6 °F 100% 29.77 in - North 5.8 mph - N/A   Mostly Cloudy
2:55 AM 62.6 °F 62.6 °F 100% 29.74 in - North 4.6 mph - N/A   Overcast
3:25 AM 62.6 °F 62.6 °F 100% 29.74 in - NNW 5.8 mph - N/A   Overcast
3:55 AM 62.6 °F 62.6 °F 100% 29.74 in 3.1 mi NNW 5.8 mph - N/A   Mostly Cloudy
4:25 AM 62.6 °F 62.6 °F 100% 29.74 in 3.7 mi NNW 5.8 mph - N/A   Unknown
4:55 AM 62.6 °F 62.6 °F 100% 29.77 in 3.7 mi NNW 4.6 mph - N/A   Partly Cloudy
5:00 AM 63 °F 61 °F 92% 29.77 in 4 mi NNW 4.5 mph - -   Mist
5:25 AM 62.6 °F 60.8 °F 94% 29.77 in 3.7 mi NNW 5.8 mph - N/A   Mostly Cloudy
5:55 AM 62.6 °F 60.8 °F 94% 29.77 in 3.7 mi NNW 4.6 mph - N/A   Overcast
6:25 AM 62.6 °F 60.8 °F 94% 29.77 in - NNW 3.5 mph - N/A   Mostly Cloudy
6:55 AM 62.6 °F 60.8 °F 94% 29.77 in - NNW 3.5 mph - N/A   Partly Cloudy
7:25 AM 62.6 °F 60.8 °F 94% 29.77 in 3.1 mi NNW 3.5 mph - N/A   Mist
7:55 AM 62.6 °F 60.8 °F 94% 29.77 in 3.7 mi NW 3.5 mph - N/A   Unknown
8:00 AM 63 °F 60 °F 89% 29.78 in 4 mi NNW 4.5 mph - -   Mist
8:25 AM 62.6 °F 60.8 °F 94% 29.77 in 4.3 mi NW 4.6 mph - N/A   Unknown
8:55 AM 64.4 °F 60.8 °F 88% 29.77 in 5.6 mi NNW 4.6 mph - N/A   Unknown
9:25 AM 64.4 °F 59.0 °F 83% 29.77 in 6.2 mi North 5.8 mph - N/A   Unknown
9:55 AM 64.4 °F 59.0 °F 83% 29.77 in 6.2 mi North 5.8 mph - N/A   Partly Cloudy
10:25 AM 64.4 °F 60.8 °F 88% 29.80 in 6.2 mi NNW 6.9 mph - N/A   Mostly Cloudy
10:55 AM 64.4 °F 59.0 °F 83% 29.80 in 6.2 mi North 4.6 mph - N/A   Partly Cloudy
11:00 AM 65 °F 60 °F 77% 29.80 in 18 mi North 4.5 mph - -   Overcast
11:25 AM 66.2 °F 59.0 °F 78% 29.80 in 6.2 mi North 4.6 mph - N/A   Partly Cloudy
11:55 AM 66.2 °F 59.0 °F 78% 29.80 in 6.2 mi North 3.5 mph - N/A   Unknown
12:25 PM 68.0 °F 60.8 °F 78% 29.80 in 6.2 mi NNW 4.6 mph - N/A   Unknown
12:55 PM 68.0 °F 59.0 °F 73% 29.80 in 6.2 mi North 4.6 mph - N/A   Unknown
1:25 PM 69.8 °F 59.0 °F 68% 29.80 in 6.2 mi Variable 2.3 mph - N/A   Unknown
1:55 PM 69.8 °F 59.0 °F 68% 29.80 in 6.2 mi East 3.5 mph - N/A   Unknown
2:00 PM 70 °F 59 °F 60% 29.81 in 18 mi 2.2 mph - -   Overcast
2:25 PM 69.8 °F 59.0 °F 68% 29.80 in 6.2 mi NE 3.5 mph - N/A   Unknown
2:55 PM 69.8 °F 57.2 °F 64% 29.80 in 6.2 mi NNE 4.6 mph - N/A   Unknown
3:25 PM 69.8 °F 57.2 °F 64% 29.80 in 6.2 mi Variable 2.3 mph - N/A   Partly Cloudy
3:55 PM 71.6 °F 59.0 °F 64% 29.80 in 6.2 mi Variable 2.3 mph - N/A   Partly Cloudy
4:25 PM 71.6 °F 57.2 °F 60% 29.80 in 6.2 mi Variable 3.5 mph - N/A   Mostly Cloudy
4:55 PM 68.0 °F 59.0 °F 73% 29.77 in 6.2 mi NNW 10.4 mph - N/A   Mostly Cloudy
5:00 PM 68 °F 59 °F 66% 29.80 in 19 mi NNW 8.9 mph - -   Partly Cloudy
5:25 PM 68.0 °F 59.0 °F 73% 29.77 in 6.2 mi NNW 6.9 mph - N/A   Mostly Cloudy
5:55 PM 68.0 °F 59.0 °F 73% 29.77 in 6.2 mi North 6.9 mph - N/A   Scattered Clouds
6:25 PM 66.2 °F 57.2 °F 73% 29.77 in 6.2 mi North 8.1 mph - N/A   Mostly Cloudy
6:55 PM 66.2 °F 57.2 °F 73% 29.77 in 6.2 mi North 4.6 mph - N/A   Mostly Cloudy
7:25 PM 64.4 °F 55.4 °F 73% 29.77 in 6.2 mi North 4.6 mph - N/A   Mostly Cloudy
7:55 PM 64.4 °F 57.2 °F 77% 29.80 in 6.2 mi NNW 5.8 mph - N/A   Mostly Cloudy
8:00 PM 64 °F 56 °F 68% 29.80 in 28 mi NNW 6.7 mph - - Rain Rain
8:25 PM 64.4 °F 55.4 °F 73% 29.80 in 6.2 mi NNW 6.9 mph - N/A   Mostly Cloudy
8:55 PM 62.6 °F 55.4 °F 77% 29.80 in 6.2 mi NNW 5.8 mph - N/A   Mostly Cloudy
9:25 PM 62.6 °F 55.4 °F 77% 29.80 in 6.2 mi NNW 5.8 mph - N/A   Overcast
9:55 PM 60.8 °F 57.2 °F 88% 29.80 in 6.2 mi NW 4.6 mph - N/A   Overcast
10:25 PM 60.8 °F 57.2 °F 88% 29.80 in 5.0 mi NNW 3.5 mph - N/A   Overcast
10:55 PM 60.8 °F 55.4 °F 82% 29.80 in 6.2 mi Variable 2.3 mph - N/A   Partly Cloudy
11:00 PM 60 °F 56 °F 81% 29.82 in 14 mi North 2.2 mph - -  
11:25 PM 59.0 °F 55.4 °F 88% 29.80 in 6.2 mi West 3.5 mph - N/A   Unknown
11:55 PM 59.0 °F 55.4 °F 88% 29.80 in 6.2 mi West 3.5 mph - N/A   Unknown